Theta_e
340 341 342 349 350 349 349 349 350 349 349 349 348 347 349 349 348 347 348 347 346 346 345 342 341 340 338 337 338 339 340 340 340 341 341 342 342 344 344 343 340 339 339 339 339 337 336 337 338 339 339 338 337 337 338 339 339 340 342 342 342 342 342 342 340 337 337 336 336 337 339 340 340 341 341 341 342 341 339 339 338 336 336 338 341
339 341 341 345 350 349 349 349 349 349 349 348 348 347 347 348 347 347 347 346 345 344 343 341 341 338 338 338 338 338 339 340 341 341 340 340 340 341 344 342 341 340 339 341 341 340 341 340 339 339 337 337 337 337 337 338 339 339 340 340 340 341 340 340 340 341 340 338 337 338 339 340 340 341 341 341 341 341 340 339 339 335 334 340 339
342 341 341 344 349 350 349 349 348 349 349 348 347 349 347 347 347 347 346 345 345 344 343 340 338 337 340 339 338 338 339 340 340 340 341 341 341 342 343 342 340 338 337 339 338 338 339 338 337 338 338 337 336 337 337 338 339 339 339 339 339 338 339 339 339 339 339 339 338 338 339 338 339 340 341 340 341 341 339 339 339 339 335 339 337
341 341 341 344 348 349 349 349 349 348 348 348 348 348 347 347 347 346 346 346 345 344 343 340 338 338 337 336 337 337 337 339 340 340 340 340 340 340 340 341 340 339 337 336 336 337 337 337 338 338 337 336 336 337 336 337 337 337 337 337 337 337 337 337 336 337 338 340 338 337 333 326 332 340 341 340 341 341 338 339 338 339 340 338 338
341 341 341 342 343 347 349 349 349 348 347 348 348 347 347 347 347 347 346 345 344 343 341 339 337 337 337 338 336 338 337 337 338 339 340 339 340 340 339 339 340 341 339 337 338 338 338 337 337 337 336 335 335 335 336 335 336 336 336 336 335 334 335 335 335 336 338 339 336 335 325 327 327 338 340 340 341 339 338 338 338 338 337 337 336
340 341 341 340 340 345 348 348 348 348 348 348 348 348 348 347 347 346 346 345 344 342 340 340 339 338 336 337 339 339 339 340 340 340 339 340 340 341 341 340 340 340 339 335 334 334 334 334 334 334 334 333 333 334 334 334 334 335 335 335 334 335 335 335 335 336 338 338 336 327 325 325 329 334 340 341 340 338 338 339 339 338 338 337 336
341 341 341 340 339 341 346 347 347 348 348 348 347 347 347 347 346 346 346 345 344 342 340 339 339 339 337 338 337 338 339 339 339 339 339 340 340 340 340 340 340 339 340 340 338 335 335 335 334 334 335 333 332 333 333 333 333 334 334 334 334 335 335 336 336 336 337 334 327 326 324 326 329 333 339 340 341 339 338 339 338 336 336 335 334
341 341 341 339 338 342 345 346 346 348 348 348 347 347 347 347 346 347 346 345 343 342 341 340 339 337 337 337 339 339 340 340 340 338 338 339 340 340 340 340 340 341 340 340 339 338 334 333 333 333 333 334 333 332 332 332 332 333 333 334 334 335 336 337 337 340 337 331 328 326 324 325 327 331 339 340 339 340 339 339 337 337 336 335 333
339 340 340 339 338 342 344 345 345 345 347 348 348 347 347 347 346 346 347 344 343 342 341 340 338 337 338 338 338 341 340 340 338 338 340 340 340 339 339 339 339 339 337 337 337 338 337 335 333 334 334 333 333 332 331 331 332 332 332 333 334 335 335 337 338 337 333 328 327 325 324 325 326 329 339 339 339 339 339 337 336 335 334 331 331
339 340 339 338 338 341 344 345 346 345 347 347 347 348 348 347 346 347 347 344 342 341 340 339 338 338 339 340 340 340 338 338 338 339 339 339 338 338 338 338 338 337 337 337 338 338 336 335 334 334 332 333 331 331 330 330 331 331 332 332 334 334 335 336 335 336 328 327 326 324 326 336 326 329 337 339 339 337 334 334 334 333 332 331 331
339 339 339 338 338 340 345 345 345 345 344 348 347 347 347 347 347 347 346 344 342 341 340 339 339 339 339 339 339 337 335 337 339 339 338 337 337 337 338 338 338 338 337 337 337 337 336 334 334 334 333 332 331 330 330 330 330 330 330 332 333 334 334 334 330 321 326 326 326 326 332 336 325 328 339 338 336 334 334 333 332 332 332 331 331
339 338 338 338 343 340 344 344 344 345 343 343 345 345 345 345 346 347 346 344 343 342 340 340 341 340 340 339 338 336 336 337 339 339 338 337 338 338 338 337 337 337 336 336 336 336 334 334 333 333 333 331 330 330 329 329 329 329 330 331 332 334 334 333 324 321 324 325 325 324 323 326 327 334 338 338 336 334 333 332 332 332 332 332 331
338 338 338 339 339 339 342 343 343 343 343 342 343 344 344 344 344 346 345 343 342 341 339 339 340 342 340 339 339 337 336 336 340 338 336 337 338 337 337 337 336 335 335 335 335 335 335 335 334 332 333 332 330 330 329 328 327 328 329 331 331 332 332 329 321 322 323 324 324 324 324 326 331 338 338 338 337 336 335 334 333 332 332 332 331
337 337 338 338 339 344 339 341 342 343 343 343 343 343 343 343 343 342 342 341 341 340 340 340 341 343 341 340 339 338 337 336 336 336 337 336 336 337 336 336 336 336 335 335 335 334 334 334 333 334 331 331 331 330 328 327 327 327 329 331 330 331 329 325 328 322 324 324 326 325 323 326 327 338 337 338 338 336 334 333 332 331 331 331 331
337 336 337 338 340 339 342 338 340 341 342 342 342 343 342 342 341 342 341 340 340 339 340 341 343 343 342 341 339 339 337 336 336 337 336 336 336 337 337 336 334 334 335 334 334 334 334 333 333 332 331 330 329 329 328 327 327 328 329 330 330 330 328 320 321 322 324 325 323 324 322 323 338 338 338 337 337 336 334 333 332 330 330 330 330
337 336 337 338 338 338 339 341 336 337 339 340 340 341 343 343 343 342 341 340 339 339 340 342 343 343 343 341 340 338 337 336 337 336 338 338 337 337 335 335 334 334 334 334 334 334 333 333 333 331 331 330 329 328 328 327 327 328 328 330 331 330 327 325 318 321 322 324 323 325 322 324 336 338 338 338 337 335 332 332 331 331 330 329 329
337 337 337 336 336 337 336 338 336 334 334 336 338 339 342 343 342 342 341 342 341 341 341 342 342 342 342 342 340 340 339 337 336 336 337 337 337 337 335 334 334 335 334 334 333 333 334 333 332 331 330 330 329 329 329 328 328 328 330 330 330 328 326 325 319 320 322 324 324 323 321 324 335 338 338 337 336 333 333 332 331 330 330 329 329
336 336 335 336 336 336 336 335 335 334 334 334 334 337 340 341 340 341 340 341 342 341 342 342 342 341 341 341 341 341 340 339 338 338 337 338 338 337 335 335 334 335 335 334 333 333 333 332 331 331 330 330 330 330 329 330 329 329 331 331 329 326 324 324 317 321 322 326 320 324 319 330 337 338 338 337 335 333 332 331 330 330 330 329 328
336 336 336 335 335 335 336 334 334 334 333 333 334 334 335 336 338 339 340 340 341 340 340 339 339 340 339 338 339 339 338 338 339 338 337 337 336 335 336 336 333 335 334 334 333 333 333 332 332 331 331 330 330 330 330 329 330 332 331 330 328 324 322 319 317 319 320 320 320 320 318 336 336 337 338 337 335 333 332 331 330 329 329 328 328
335 335 335 335 335 335 335 334 333 333 333 333 333 332 331 331 334 337 338 338 339 338 337 335 336 334 334 335 335 336 334 334 332 334 335 335 334 329 334 335 334 334 334 333 333 333 334 333 332 332 332 331 331 330 331 331 331 332 331 329 326 322 313 312 316 317 317 320 321 319 330 336 336 337 337 337 335 333 332 330 330 328 327 328 327
334 334 334 334 334 334 334 334 333 333 333 333 332 331 331 330 331 333 334 335 335 336 335 331 328 328 329 330 331 333 332 331 333 334 330 333 328 326 333 334 335 335 335 333 333 333 333 333 333 333 333 332 332 332 331 333 332 332 331 327 322 313 312 313 314 318 316 317 318 317 332 335 336 337 337 336 335 334 332 330 329 328 326 327 327
330 331 333 335 334 333 333 334 333 333 333 333 333 333 331 330 330 334 334 333 331 331 332 331 331 329 325 327 331 331 330 329 328 331 326 329 326 325 327 332 335 333 334 334 333 333 334 333 333 333 333 333 330 325 322 326 329 330 327 323 316 313 312 311 312 315 315 315 318 320 331 333 336 337 337 337 336 334 332 330 329 327 327 326 326
328 329 331 333 334 333 333 333 333 333 332 332 333 332 330 329 329 332 333 330 331 331 330 330 329 328 328 329 329 329 328 327 327 327 326 324 325 323 326 330 333 332 332 333 334 333 333 334 332 332 333 332 327 319 319 316 316 320 319 318 314 312 311 310 311 312 315 314 314 325 329 331 335 337 338 337 336 334 332 331 329 327 326 326 326
329 329 330 332 333 334 333 334 333 333 333 332 332 331 330 329 328 330 331 331 330 329 329 329 328 328 328 329 329 327 326 326 328 328 328 325 323 322 325 327 329 328 328 329 331 332 333 333 332 332 331 324 319 316 316 314 313 313 313 313 312 313 312 309 311 312 313 315 313 326 327 329 332 334 336 337 337 334 331 330 328 327 325 326 326
329 330 329 331 332 333 334 334 334 333 333 333 332 331 330 329 329 329 330 330 329 329 329 328 328 328 328 328 328 327 326 326 326 326 324 325 325 326 327 327 327 327 323 323 319 319 322 322 319 321 317 318 316 318 316 316 316 315 314 313 314 313 313 310 310 310 313 313 312 323 328 328 331 336 337 336 336 333 331 329 328 326 326 325 325
327 328 330 330 331 332 332 334 334 333 333 333 332 332 330 329 328 329 330 331 329 329 329 328 327 327 327 327 326 324 324 327 327 325 324 324 325 325 326 326 325 325 324 323 321 321 321 322 321 320 317 315 316 318 316 316 316 315 314 314 314 314 314 310 310 310 312 311 311 321 325 327 329 333 336 336 336 333 331 330 329 328 327 326 325
326 328 330 330 332 331 331 332 333 333 332 333 333 331 330 329 329 329 329 330 330 329 328 328 327 327 326 325 325 322 322 326 326 324 324 324 325 325 325 325 324 324 324 323 321 320 321 320 319 319 317 314 314 315 315 316 316 317 316 315 314 314 314 312 310 310 310 309 312 318 323 327 328 330 333 336 335 333 331 330 329 329 328 326 325
327 328 329 331 330 332 332 331 332 332 331 332 332 331 330 329 329 328 329 328 329 329 329 328 327 326 325 326 324 323 322 324 325 324 323 323 323 324 325 324 324 323 322 322 320 319 319 319 318 316 317 315 314 314 315 316 316 316 316 316 316 315 314 312 311 311 310 309 309 313 320 325 327 328 331 334 334 333 332 331 330 328 328 327 325
326 327 329 330 331 331 332 331 331 331 332 331 330 331 331 330 328 327 328 327 328 328 328 328 327 327 327 326 324 322 321 324 325 325 324 322 323 323 323 323 323 322 322 319 320 319 318 318 317 316 316 316 315 315 315 315 315 316 316 316 315 315 314 313 311 310 309 308 307 308 317 323 327 328 329 331 333 335 334 332 330 327 326 327 326
327 328 328 329 331 332 331 331 332 332 332 331 330 330 330 330 329 328 328 327 328 329 328 328 328 328 327 327 326 324 322 322 323 324 323 323 323 321 321 322 322 322 321 320 319 319 318 317 316 315 315 315 315 316 315 315 315 315 315 315 315 315 315 313 312 310 311 309 307 306 312 319 324 327 329 329 331 333 334 335 333 328 327 327 326
327 327 327 328 330 330 331 331 332 330 331 331 330 329 329 330 329 329 328 327 328 328 328 328 328 328 328 327 327 325 323 321 321 321 321 321 320 320 320 320 320 321 322 321 319 318 318 318 317 316 315 314 315 316 315 315 315 315 315 314 315 315 315 315 313 312 311 311 308 307 307 315 320 325 328 329 330 331 332 333 335 331 330 328 328
324 326 328 328 328 329 330 331 331 331 330 331 330 330 329 329 329 329 328 328 327 328 328 328 326 328 328 328 328 326 323 322 321 320 320 319 318 319 319 319 319 320 320 320 319 318 318 317 316 316 315 315 315 315 315 314 315 315 315 314 315 315 315 315 315 314 312 311 310 308 306 308 315 320 324 328 329 329 330 331 333 330 329 328 329
326 326 327 327 327 328 329 330 331 330 330 331 331 331 330 330 328 329 329 328 327 327 328 328 328 327 327 328 328 328 325 324 322 321 318 319 318 317 317 318 319 319 318 318 318 317 316 315 315 315 314 314 314 314 315 314 314 315 314 314 315 315 316 315 315 314 312 312 311 309 307 306 307 313 317 321 326 328 329 330 332 331 330 329 329
327 326 325 326 327 328 329 330 330 330 330 331 331 330 330 330 329 329 327 328 327 327 326 328 327 327 326 327 327 327 326 326 324 322 320 319 317 317 317 317 317 317 317 317 317 315 316 314 314 312 313 313 313 314 313 313 313 314 313 314 314 315 316 316 315 315 313 312 312 310 309 307 306 307 310 315 319 323 327 329 330 332 332 331 330
326 324 324 326 326 327 328 329 328 329 328 330 330 330 330 330 329 329 328 327 328 327 327 327 327 327 326 326 327 327 326 326 325 324 320 319 318 317 316 317 317 316 316 316 316 316 315 315 314 313 312 312 312 313 313 313 313 314 314 313 313 314 314 316 316 315 313 313 312 311 310 309 307 307 309 309 312 317 322 327 329 330 331 332 332
326 326 326 325 326 327 326 327 327 328 328 329 330 330 330 330 330 327 328 327 327 327 328 327 327 326 326 325 326 326 326 326 325 324 322 319 318 317 317 316 316 316 316 316 316 316 315 315 315 314 313 312 311 312 312 312 313 313 314 314 313 313 314 314 315 315 314 313 312 312 311 310 310 308 308 309 309 310 316 321 326 328 330 331 332
325 326 326 324 325 326 325 326 327 327 328 328 329 329 330 329 330 329 329 327 327 327 328 328 327 326 326 325 325 325 325 325 325 324 323 320 318 317 316 316 316 316 316 316 315 316 316 316 315 313 314 314 312 312 312 312 313 313 313 313 313 312 312 314 314 315 314 312 312 312 312 311 310 310 309 308 308 308 311 315 320 324 325 327 330
323 325 326 326 326 326 326 326 327 327 328 328 328 328 329 329 328 328 326 327 327 327 328 327 327 327 327 326 326 324 323 324 324 324 323 322 320 318 317 316 316 316 316 316 316 315 315 315 315 314 313 313 312 312 312 312 312 313 312 312 312 312 312 312 313 312 313 313 312 312 312 312 311 310 309 309 308 308 308 310 315 317 318 319 325
323 323 325 326 326 326 326 325 325 327 327 327 327 327 327 327 327 327 326 327 327 327 327 327 328 328 328 328 327 326 323 323 323 323 322 321 320 319 318 317 317 316 316 315 315 315 315 315 314 314 313 313 314 313 313 312 312 312 312 312 312 312 312 312 312 312 313 314 314 313 313 312 311 311 310 309 309 309 309 309 309 311 313 316 322
322 323 323 325 325 325 325 326 325 327 326 326 326 325 325 324 324 323 324 325 326 325 326 327 328 328 328 328 327 327 326 324 324 324 323 322 322 320 319 318 317 316 316 315 315 314 314 313 313 313 313 311 311 312 311 310 309 309 309 310 311 311 312 312 313 313 313 313 314 313 312 312 311 312 311 310 309 308 309 310 310 311 312 314 316
319 322 322 323 324 325 324 324 326 326 325 325 324 324 323 323 323 324 324 326 326 326 326 327 327 328 328 328 327 327 327 326 325 326 325 323 323 323 321 319 318 317 316 316 316 315 315 314 314 312 312 312 311 311 309 308 308 308 309 308 310 311 311 311 313 313 313 314 313 313 312 312 312 312 312 311 310 308 308 310 310 310 311 311 313
314 317 320 322 324 324 324 325 326 325 325 326 325 325 325 325 324 324 325 326 325 324 325 326 327 328 327 327 327 327 327 327 325 326 326 326 324 324 323 322 320 319 318 317 317 314 314 313 313 312 312 312 312 311 310 310 308 308 307 305 308 310 311 312 312 313 314 314 313 313 312 312 312 312 312 311 311 310 309 309 310 310 310 310 310
315 315 318 320 321 323 324 324 325 325 325 326 325 325 326 326 325 325 325 325 326 326 326 326 326 326 327 327 327 327 327 327 327 325 326 326 326 325 324 324 322 320 318 318 317 316 316 314 313 313 311 310 311 311 310 312 310 307 304 304 304 304 307 307 312 313 315 315 314 312 313 312 313 313 312 311 311 311 310 309 309 309 310 310 310
311 311 314 317 319 321 323 324 324 324 325 325 323 326 326 326 326 325 322 324 323 322 324 322 323 324 325 327 327 327 327 327 327 327 325 326 326 326 326 325 324 322 320 319 318 317 316 315 314 313 313 310 310 310 311 312 312 307 303 305 300 298 301 304 308 312 314 314 314 313 313 313 313 313 311 311 311 311 311 310 309 310 310 310 310
311 311 312 315 318 319 321 323 324 324 325 324 324 324 323 320 322 320 319 318 317 318 318 321 323 323 324 325 326 327 327 327 327 327 326 325 326 326 326 325 325 324 322 320 319 318 318 317 316 314 313 312 311 311 310 312 312 313 309 301 299 297 302 300 300 305 309 312 313 314 313 313 313 312 311 311 311 311 311 310 310 310 310 311 311
311 313 313 314 316 318 318 320 322 324 324 324 324 324 323 323 321 321 320 320 320 319 319 320 321 322 323 325 326 326 327 326 327 327 326 325 325 326 326 325 325 324 323 322 321 320 319 317 317 316 314 314 313 311 310 309 312 312 313 312 306 302 298 298 301 300 297 308 311 312 314 313 313 312 312 311 310 311 310 311 310 310 310 310 311
311 312 312 312 314 316 316 317 319 320 322 322 323 322 323 323 323 323 323 322 321 322 322 322 322 323 324 324 325 326 326 326 326 326 326 326 325 326 326 326 325 325 323 323 322 320 320 319 318 317 317 315 313 311 310 310 307 311 313 313 311 305 299 300 300 299 298 296 303 309 311 312 313 312 312 311 311 311 311 310 310 310 310 310 310
309 310 311 311 311 313 314 315 317 318 319 321 322 323 323 323 322 322 322 322 322 322 322 322 322 322 322 323 324 325 325 326 326 326 326 326 325 326 326 325 325 325 324 323 322 322 321 320 319 318 318 317 315 313 312 311 309 310 312 312 311 312 309 304 299 302 297 296 300 300 305 309 310 312 313 312 311 311 311 310 310 310 310 310 309
307 308 310 310 310 311 310 310 313 315 316 318 321 322 323 323 323 322 322 322 323 323 321 320 320 320 321 322 322 323 324 325 326 326 326 326 324 325 326 325 325 325 323 324 323 323 321 320 319 318 317 317 316 315 314 313 311 310 310 310 311 311 311 311 308 303 303 300 302 302 303 301 305 309 311 313 313 312 311 311 311 310 310 309 309
305 305 306 307 308 308 309 309 310 311 314 315 318 320 322 321 322 322 321 322 321 321 319 319 318 319 320 321 321 322 323 323 324 325 325 325 326 325 325 325 325 325 322 323 323 323 322 321 320 319 318 316 317 316 315 315 314 313 312 311 309 310 310 310 309 308 305 305 303 303 303 302 302 307 310 311 312 312 312 311 310 309 310 310 309
304 304 304 304 305 306 308 309 309 310 310 314 316 318 320 321 321 321 321 321 321 320 319 319 318 316 318 319 320 321 322 322 323 323 324 324 325 325 325 325 325 323 322 323 323 323 323 322 321 320 318 317 316 316 314 314 314 313 312 311 310 310 310 308 309 309 308 304 303 304 306 305 304 305 307 310 311 312 312 312 311 310 310 309 309
Wind_Speed
4 6 4 5 7 9 9 10 11 11 11 12 11 11 12 12 12 13 13 13 13 13 12 12 10 10 10 7 9 8 9 9 9 11 11 10 11 14 13 14 14 12 12 13 12 11 11 11 11 11 11 12 11 11 11 11 11 12 12 11 12 11 11 11 10 9 9 10 9 10 10 9 10 10 10 11 11 11 9 10 9 8 5 9 15
8 4 3 4 8 9 10 10 10 11 12 12 11 12 12 12 12 12 12 13 12 13 12 12 10 10 9 10 9 9 9 9 10 11 10 10 10 12 13 14 13 13 13 13 12 12 11 11 12 11 11 11 10 11 12 11 11 11 12 12 11 11 11 11 10 11 11 10 10 9 8 9 10 9 9 11 12 11 8 10 12 5 2 13 15
7 5 3 4 8 9 10 11 11 11 11 11 11 11 12 12 12 13 12 12 12 12 14 12 9 7 11 10 9 8 9 9 10 10 10 11 11 13 13 13 13 11 12 12 12 12 11 10 10 11 11 10 10 10 11 11 10 10 10 10 11 10 10 11 11 10 9 9 8 9 9 8 10 9 9 10 12 11 9 11 11 11 7 15 14
9 5 4 5 8 9 10 10 11 12 11 11 11 11 11 12 12 12 12 12 12 13 13 14 11 10 8 8 10 9 9 10 10 9 10 10 10 11 11 12 12 12 11 11 11 11 10 10 10 10 10 10 10 10 10 9 9 9 9 9 10 10 11 10 9 8 8 7 5 7 3 4 4 10 9 10 12 12 8 10 12 12 14 13 14
9 6 4 4 5 8 9 10 10 11 11 11 11 12 11 12 12 12 12 12 12 13 13 12 11 8 9 11 8 10 9 9 9 10 10 11 11 10 11 12 12 13 13 11 10 10 10 10 10 10 9 9 9 10 8 7 7 8 9 9 9 8 7 7 6 6 5 3 4 4 3 3 4 6 9 12 12 11 10 11 11 13 13 13 13
7 6 5 4 4 7 11 10 11 10 10 11 11 11 11 11 12 12 12 12 13 13 13 14 12 10 8 9 11 10 10 10 10 10 10 10 11 11 11 11 12 11 11 11 10 10 10 9 10 9 9 9 9 8 6 8 9 9 9 8 7 8 8 7 5 4 3 4 3 1 3 3 4 2 9 11 11 9 11 12 13 12 13 14 13
9 5 6 4 3 5 11 11 11 10 11 10 10 10 11 10 10 10 11 12 12 12 11 12 13 11 10 10 10 10 10 10 11 10 10 11 11 10 10 10 10 10 11 11 12 10 9 10 10 9 9 8 7 6 7 8 8 8 8 8 8 9 9 7 3 1 3 4 2 2 2 3 3 2 7 11 12 11 10 12 12 12 12 12 12
6 5 6 4 3 5 9 10 11 11 11 10 9 10 10 11 11 10 10 11 12 11 11 12 12 11 9 10 11 11 10 10 11 11 10 10 10 9 10 10 10 10 10 11 10 10 9 8 8 8 8 7 6 6 6 7 8 8 8 8 9 9 10 8 5 3 3 1 2 2 2 2 3 2 6 9 11 11 11 12 12 12 12 12 10
7 6 6 5 3 6 6 8 10 12 11 10 10 9 10 11 12 12 11 10 11 11 11 12 12 11 11 10 11 11 11 11 10 10 10 10 10 10 10 10 10 10 9 9 10 10 10 9 8 8 8 7 6 5 5 6 7 7 8 8 9 9 10 7 5 6 2 1 2 2 1 1 2 2 6 9 11 11 13 9 10 12 12 11 11
7 6 6 5 5 7 6 6 7 10 11 11 11 10 11 10 11 12 10 12 11 11 11 11 11 11 11 11 11 11 10 10 10 10 10 10 10 9 9 9 9 9 9 9 9 9 8 8 8 7 7 7 6 5 5 6 7 7 7 8 8 9 9 7 6 4 1 2 3 2 0 1 1 1 6 9 10 12 11 9 7 6 6 10 10
8 7 6 6 7 9 8 7 6 7 10 10 10 11 12 11 11 11 10 12 12 12 11 10 11 12 12 12 11 10 10 10 11 10 9 9 10 9 8 8 8 8 8 8 8 8 8 8 7 7 7 6 5 4 4 5 6 7 6 7 7 8 9 7 4 1 1 3 3 1 1 2 1 1 10 10 12 13 9 10 11 11 11 10 9
8 7 6 6 9 11 10 9 8 8 8 9 10 9 10 11 11 11 10 12 12 11 11 11 11 12 13 12 12 11 10 11 11 10 10 10 9 9 9 9 8 8 8 8 8 8 7 7 6 6 6 5 4 4 3 4 5 5 5 6 7 7 8 6 3 1 1 3 3 2 1 0 1 2 9 11 12 12 11 11 11 10 10 10 9
8 7 7 6 6 10 11 10 9 9 9 8 8 9 9 10 11 12 12 11 10 9 9 10 11 12 12 13 12 12 11 11 13 11 11 11 10 10 9 8 8 8 8 7 7 7 7 7 7 6 6 5 4 2 1 2 4 4 4 5 6 7 8 5 2 0 2 3 2 2 2 1 1 5 7 11 12 11 11 10 10 10 10 9 9
8 7 7 7 6 10 11 11 11 10 10 9 8 9 7 8 11 10 10 9 8 8 9 8 10 12 12 12 13 12 12 12 11 10 10 11 11 10 9 8 8 8 8 7 7 7 6 6 6 6 5 4 4 2 1 1 2 2 4 5 6 7 7 3 3 1 3 3 2 1 1 0 2 6 8 8 10 12 10 9 9 9 9 9 9
10 9 8 7 7 7 11 11 11 10 10 9 8 9 10 7 10 11 10 9 9 9 9 9 10 12 10 11 12 12 11 10 11 11 10 9 9 9 8 8 8 8 7 6 6 6 6 6 6 5 5 4 3 3 2 2 2 2 4 5 6 6 6 2 2 1 3 2 1 1 2 1 4 7 9 9 10 11 10 8 9 9 9 9 9
13 10 9 7 7 7 7 10 11 11 11 10 9 9 9 8 10 11 10 10 10 10 10 9 11 13 12 12 13 12 12 11 11 10 7 8 9 9 9 8 8 7 6 6 6 5 5 5 5 5 4 4 4 3 3 3 3 3 4 5 5 5 6 4 2 1 3 3 1 1 1 1 4 7 9 10 9 9 8 8 8 8 8 9 9
11 10 10 8 8 7 7 7 8 12 12 11 10 9 8 8 9 10 11 10 10 10 10 10 10 12 12 11 10 11 11 12 12 11 10 11 11 9 8 8 7 7 7 6 6 6 6 6 5 5 4 4 4 4 4 4 4 3 4 4 4 5 5 3 2 2 3 1 1 0 1 1 2 8 10 9 10 9 8 7 7 8 8 9 9
10 11 10 9 8 7 7 7 7 7 7 10 10 10 9 9 9 10 12 11 11 11 11 10 10 9 11 9 6 7 9 11 10 10 11 10 9 9 10 10 9 8 7 6 6 6 6 5 5 5 4 5 5 5 6 6 5 4 4 4 4 4 4 2 2 1 3 2 1 0 1 3 4 9 10 10 9 10 8 7 6 6 8 8 8
8 9 9 10 9 8 8 7 6 6 7 6 6 8 11 10 9 10 12 12 12 12 12 10 10 11 11 11 9 9 6 6 9 9 9 8 7 8 8 7 9 9 8 7 7 7 7 6 6 5 6 6 6 7 7 7 6 5 4 4 4 3 2 2 1 0 0 1 2 0 0 4 6 8 11 10 10 9 9 7 6 6 7 7 8
7 7 7 8 8 8 7 7 7 7 7 6 6 6 9 11 11 11 13 13 13 12 12 11 11 11 11 11 10 9 8 6 10 9 9 8 8 6 6 6 9 9 8 8 7 8 8 7 7 7 7 7 8 8 7 8 6 5 5 5 4 3 1 1 2 1 1 0 0 0 2 3 7 8 10 11 10 9 8 7 7 6 6 7 7
4 6 7 7 7 9 9 7 7 8 8 7 7 7 7 11 10 12 14 13 12 13 12 13 12 11 11 10 10 8 6 5 6 6 9 7 8 8 7 6 8 8 8 8 9 9 9 9 8 8 9 9 8 8 6 7 7 7 6 6 5 2 1 1 2 2 2 0 0 1 3 5 7 8 9 9 10 9 8 7 6 7 7 7 7
6 6 5 7 7 7 9 8 7 8 7 6 5 5 5 8 6 7 8 11 11 11 10 8 8 7 10 9 7 6 6 5 5 5 4 6 7 10 8 7 8 7 6 8 9 9 9 9 9 9 10 9 8 5 4 5 8 8 7 6 3 3 1 0 2 2 3 2 0 2 3 4 6 9 10 11 11 10 8 7 6 7 7 7 7
6 6 6 6 6 6 5 7 6 7 6 6 5 5 5 5 5 6 6 8 7 9 8 9 6 7 7 8 6 5 6 6 6 6 6 8 8 9 9 9 10 9 8 7 7 8 10 10 10 10 9 8 5 3 3 3 4 7 8 6 4 4 1 2 3 3 3 3 2 3 3 3 5 8 11 12 12 9 9 9 8 7 8 8 8
7 7 7 5 6 7 8 7 7 7 7 6 5 5 5 4 4 4 5 5 6 7 7 7 7 7 6 7 6 6 6 5 7 12 10 6 5 7 9 9 10 10 9 6 7 7 9 10 8 7 5 3 3 3 4 4 4 3 4 5 5 4 4 2 4 4 3 3 3 4 3 4 7 7 12 13 13 10 9 8 7 8 9 9 9
8 5 5 7 7 8 7 8 7 7 7 7 6 5 5 5 5 5 5 6 6 6 6 7 7 8 8 7 6 6 6 6 6 5 5 6 6 5 5 5 4 5 7 4 3 3 2 4 3 3 3 3 3 4 4 5 5 5 5 5 5 5 4 3 5 4 4 3 3 5 3 4 7 8 13 14 13 11 9 8 8 8 9 10 9
4 6 9 7 7 7 9 8 8 8 9 8 8 7 7 7 6 6 6 6 7 6 6 6 7 7 7 7 6 6 6 6 6 7 7 7 7 6 6 6 5 5 5 5 5 4 3 4 4 4 4 3 4 4 4 5 6 5 5 5 5 5 6 4 3 4 4 4 3 6 5 4 6 7 10 14 14 12 11 10 10 10 11 11 10
8 9 7 7 8 6 7 9 9 9 10 8 7 6 7 7 7 6 7 7 6 7 7 7 7 7 7 7 7 6 6 6 6 7 8 7 8 7 7 7 7 6 6 5 5 5 5 5 5 5 5 3 4 4 5 5 6 6 6 5 5 6 5 6 4 4 4 4 4 6 6 5 4 8 8 9 15 13 12 12 12 12 13 12 12
7 10 9 9 9 11 9 9 10 10 9 8 8 8 7 7 7 7 8 8 8 8 7 7 6 7 7 7 7 7 7 6 7 8 8 8 8 7 7 7 7 6 6 6 6 5 6 5 5 5 6 4 5 5 5 6 6 6 6 7 7 6 6 6 4 4 4 4 4 6 7 7 6 5 9 9 12 15 14 14 15 14 13 13 13
10 11 10 9 11 11 10 11 10 11 9 9 10 9 8 8 8 8 8 8 8 8 8 7 7 7 7 8 7 7 6 7 8 8 8 8 7 7 7 7 7 6 6 6 6 7 6 6 6 6 6 6 5 6 6 6 6 6 7 7 7 6 5 6 5 4 4 6 5 6 8 8 8 10 9 10 10 14 16 16 14 12 14 15 14
14 12 9 11 10 10 11 12 12 11 10 9 9 9 9 9 10 10 9 8 8 8 8 8 8 8 7 8 8 7 7 7 7 7 8 8 7 7 7 7 8 7 6 8 7 6 7 6 6 6 7 7 6 7 6 6 6 6 6 7 6 6 6 6 5 6 6 6 6 7 10 10 10 11 11 11 11 12 13 16 17 14 15 16 15
11 11 11 11 10 9 11 12 12 10 8 10 9 9 9 10 10 9 8 9 9 8 8 8 8 8 8 9 8 8 7 7 7 7 7 7 7 7 7 6 7 7 7 7 6 7 6 7 7 7 7 7 7 7 6 6 6 6 6 7 7 6 6 6 6 5 5 6 6 6 7 11 12 12 12 12 14 14 14 15 18 17 17 16 16
10 14 12 10 9 12 13 12 12 10 10 11 9 9 10 10 9 8 9 9 9 9 8 8 9 8 8 9 9 8 7 7 7 7 7 7 7 8 7 7 8 7 7 6 6 6 7 6 7 7 7 6 7 7 6 6 7 7 6 7 6 7 7 7 7 7 7 6 7 7 7 8 11 13 13 14 15 16 14 13 16 18 17 17 18
11 12 11 8 12 12 12 12 11 10 12 12 11 10 9 9 9 9 9 8 9 8 9 9 9 8 8 9 9 9 8 8 8 9 8 7 7 8 8 8 7 7 6 7 7 6 6 6 7 6 6 6 7 8 7 7 7 8 7 7 6 7 7 7 7 6 6 7 7 7 7 7 7 11 13 13 13 15 16 15 15 17 18 18 17
10 8 5 10 10 7 8 8 10 12 13 12 10 10 10 9 9 9 8 8 8 9 9 8 8 8 8 9 9 10 9 9 9 9 8 8 7 8 8 8 7 6 6 6 7 6 6 6 7 6 6 7 8 8 7 8 8 7 7 7 6 7 7 7 7 7 7 7 7 6 7 6 7 7 7 12 14 14 15 16 17 16 17 19 19
9 6 11 13 9 9 8 8 10 12 12 12 12 12 10 10 9 9 8 8 8 8 8 8 8 8 8 9 10 9 10 10 10 9 9 8 8 8 8 7 6 6 6 6 7 6 6 8 6 7 6 7 7 8 8 8 8 9 8 6 7 7 6 7 7 7 7 7 7 7 7 7 7 7 7 7 10 14 14 16 17 17 17 18 20
13 13 11 7 9 10 9 10 9 12 12 13 12 12 11 10 9 8 8 7 7 8 8 8 7 7 8 8 9 10 9 10 10 9 8 8 8 8 8 6 6 6 7 6 6 7 7 6 7 6 8 9 7 9 7 8 8 9 8 7 7 6 7 7 8 8 7 7 7 7 7 7 7 7 7 7 7 9 14 15 15 16 16 17 19
13 11 11 9 10 10 10 11 12 13 14 13 11 10 10 10 9 8 8 7 8 8 8 7 6 7 7 8 9 9 9 10 10 9 9 8 7 7 6 7 6 7 7 7 7 7 7 7 7 7 7 8 8 9 8 8 8 9 8 7 7 7 7 7 7 8 7 7 8 8 7 7 7 8 7 7 7 7 11 14 16 17 16 16 17
11 11 11 12 13 11 11 12 12 12 12 11 11 11 10 9 7 7 6 8 9 8 7 7 8 8 8 9 8 9 9 9 9 9 9 8 7 7 6 7 7 7 7 7 8 7 7 8 9 8 8 8 8 9 10 8 7 8 8 7 7 7 7 7 7 7 7 8 8 8 9 8 8 8 8 8 8 8 8 11 15 16 16 16 15
9 11 11 11 9 9 9 11 12 11 10 10 10 9 8 6 6 6 7 8 7 7 7 8 9 8 9 10 9 8 9 9 9 9 8 8 7 7 7 7 7 7 8 8 8 8 8 8 10 9 7 9 9 8 8 6 7 7 8 8 7 8 7 7 7 7 8 9 10 10 8 9 8 8 9 8 8 8 8 8 8 8 10 17 14
9 9 10 9 10 9 8 9 11 11 9 8 7 7 6 7 8 5 7 8 8 8 9 10 8 9 10 9 8 9 8 8 9 9 9 9 8 7 8 6 7 7 8 9 9 9 11 10 10 9 9 7 7 7 5 6 5 7 8 8 8 8 8 7 8 9 8 9 9 8 9 8 8 9 9 9 8 8 9 9 8 8 8 12 16
7 8 8 9 10 12 10 12 12 10 9 9 8 9 9 8 6 9 11 10 10 10 9 9 10 10 10 9 8 9 9 9 9 9 10 9 9 8 8 8 7 8 9 11 10 10 9 9 8 8 10 10 9 7 5 3 5 8 8 8 8 8 9 8 11 10 10 10 8 9 9 8 9 10 10 8 8 9 9 9 9 8 8 7 10
10 8 10 12 12 11 11 13 9 9 11 11 11 10 10 10 10 11 11 10 9 10 11 10 11 10 8 8 8 8 9 9 9 10 10 10 10 9 9 9 8 9 9 9 8 9 9 9 7 7 7 10 10 7 6 5 7 11 8 6 7 8 10 9 11 12 12 10 9 9 9 10 11 11 9 8 9 9 9 9 9 9 9 8 8
11 11 12 10 9 10 11 10 9 10 11 11 10 10 9 9 9 9 10 8 7 8 8 8 7 8 7 8 8 8 10 10 10 10 10 11 11 10 10 9 9 9 9 10 9 10 10 11 10 10 8 7 8 5 8 11 11 4 1 3 8 5 4 5 10 15 13 12 9 10 11 11 14 11 9 8 9 10 9 8 9 9 9 9 9
8 6 7 9 9 9 10 10 10 10 10 10 11 11 10 8 7 5 4 6 5 4 5 5 5 6 9 8 9 10 11 11 11 11 11 11 12 11 10 10 10 9 10 10 11 12 10 10 11 11 9 9 8 9 8 10 10 7 4 10 3 1 8 9 11 10 11 14 12 12 10 12 12 10 8 10 11 10 9 8 10 10 10 10 10
7 8 8 9 9 12 13 12 12 11 11 9 11 8 5 4 4 3 0 2 2 3 4 7 8 8 8 9 12 10 11 11 11 12 11 12 11 11 11 10 10 10 9 11 11 12 11 11 11 10 11 12 12 8 6 9 12 10 8 3 1 2 9 5 1 7 5 9 13 14 12 12 11 11 10 11 10 10 10 10 11 10 11 11 10
8 9 9 10 8 9 9 9 8 7 8 8 8 7 8 8 7 7 8 8 9 7 10 11 9 11 12 10 8 10 11 11 11 11 12 11 11 12 11 11 11 10 10 10 10 10 12 12 11 11 13 14 11 7 9 6 11 12 14 11 6 7 3 3 1 8 3 8 7 9 13 13 12 12 11 11 11 11 10 11 10 11 11 11 10
10 6 4 5 6 7 6 6 7 6 5 5 7 8 8 8 10 11 11 11 12 10 8 7 9 9 8 9 10 9 10 11 11 11 11 11 11 11 11 11 11 11 10 10 11 12 11 11 10 11 13 10 10 12 12 8 4 10 13 15 15 7 2 2 6 2 7 3 4 7 10 11 11 13 12 12 12 11 11 11 12 12 11 11 10
4 2 5 5 5 7 5 5 5 6 5 5 6 9 9 9 10 10 10 11 11 12 8 8 7 6 7 10 8 9 9 10 11 11 12 12 11 11 11 11 12 12 11 11 13 12 10 10 11 12 11 10 11 13 13 9 11 10 10 13 14 15 11 7 3 3 4 6 8 4 6 7 8 12 12 12 13 13 13 11 12 12 11 10 10
4 4 3 3 3 3 2 2 4 4 4 5 7 8 9 10 10 9 10 10 10 9 6 5 7 7 9 8 9 9 9 10 11 12 12 12 11 12 12 12 12 12 11 12 12 12 14 13 12 11 12 12 11 12 11 12 11 13 7 11 12 12 13 12 10 5 8 7 14 11 12 2 4 11 10 12 12 11 12 13 12 12 11 10 10
2 2 1 1 1 1 2 2 4 4 4 4 5 6 8 7 8 9 10 10 8 8 5 7 7 6 9 10 9 9 9 9 10 11 12 12 12 12 12 13 14 13 11 12 13 13 13 14 14 13 12 13 11 12 14 13 11 11 11 9 9 11 10 10 11 12 10 11 16 12 9 8 10 10 10 11 12 13 12 12 11 11 11 11 10
1 1 3 3 1 1 0 1 3 1 2 4 5 7 6 6 8 9 10 11 10 8 7 8 7 6 9 10 9 9 8 9 9 10 12 12 12 12 12 13 13 12 12 13 13 13 13 13 13 13 14 15 13 13 13 13 12 12 12 11 12 12 13 14 14 12 12 10 10 14 16 13 12 11 9 10 11 13 12 11 11 12 12 12 11
Wind_Direction
198 168 188 162 136 134 137 137 132 135 134 133 132 131 122 129 128 122 119 117 114 110 104 97 96 98 105 111 116 120 120 110 108 95 82 83 96 99 99 97 96 96 96 94 93 97 102 96 92 89 89 88 90 91 96 89 87 88 82 79 78 70 57 49 45 49 58 79 87 73 66 73 73 71 88 92 88 87 77 85 90 92 96 90 84
172 187 166 148 138 135 135 131 133 137 136 137 138 134 136 133 129 126 123 120 119 116 106 100 100 100 99 114 120 120 119 116 106 100 99 98 95 96 97 97 98 102 103 103 107 104 96 101 102 99 97 98 98 101 97 95 96 89 86 76 70 57 47 41 34 26 37 53 62 58 74 77 75 77 89 99 98 96 101 101 99 87 81 85 81
148 153 161 145 141 130 131 135 139 133 139 138 138 132 131 134 133 131 127 125 123 118 110 103 100 106 119 116 116 121 120 118 116 105 102 104 109 111 107 101 99 102 104 101 94 98 101 103 100 96 95 97 96 96 98 97 89 86 75 64 54 49 42 35 26 19 22 16 31 38 24 44 79 81 95 105 104 101 104 111 110 103 91 84 81
138 155 143 141 131 129 131 131 134 140 136 136 137 132 136 137 134 132 132 131 128 118 113 117 118 115 105 97 116 127 128 119 108 107 107 111 111 106 104 103 101 97 92 99 105 103 105 104 102 99 98 100 104 104 104 86 85 79 66 58 51 42 35 25 16 9 6 351 29 18 13 358 359 83 88 106 106 103 103 101 97 100 94 90 89
138 143 138 132 130 128 120 125 128 130 136 135 137 138 140 140 140 138 137 133 128 123 121 118 115 97 110 123 121 126 123 118 114 111 115 117 116 114 108 105 104 104 104 101 102 103 100 98 94 92 93 96 102 106 89 82 65 57 50 48 48 41 32 20 10 3 356 51 37 14 3 347 355 72 102 107 105 109 114 115 109 91 90 91 91
143 139 133 128 127 133 129 128 132 132 134 138 139 139 141 142 143 143 139 138 132 129 128 125 121 120 119 122 124 117 120 122 122 121 121 120 111 108 109 112 109 109 110 112 102 98 101 100 96 95 96 96 97 97 69 54 49 45 41 41 34 24 20 29 17 350 37 95 62 10 351 11 24 15 116 113 114 119 121 108 101 99 95 93 91
140 139 130 131 134 141 135 134 136 134 133 137 141 142 139 140 144 145 144 141 136 134 132 127 124 128 130 131 126 127 128 128 123 121 125 121 120 117 116 115 114 111 112 115 116 115 114 111 107 102 94 95 103 84 55 51 46 40 36 33 25 15 6 16 38 59 108 112 110 37 13 21 24 56 120 121 121 122 116 105 96 94 93 92 92
133 136 131 130 136 143 135 138 141 136 136 136 141 142 143 147 153 150 153 145 143 139 135 127 127 132 135 131 134 134 126 120 125 130 126 114 110 109 116 117 115 115 116 116 117 113 111 107 103 107 103 93 86 68 55 48 41 37 32 26 21 10 5 9 75 102 106 19 87 76 23 10 27 27 122 130 124 121 112 99 97 93 94 92 87
141 139 130 129 135 135 134 138 146 143 140 142 146 149 151 152 155 155 161 148 142 139 136 134 136 140 141 140 133 132 132 131 125 126 122 124 120 125 124 125 127 124 124 126 122 118 114 121 124 112 110 105 89 70 52 41 37 32 28 27 18 9 8 23 95 108 108 101 87 82 57 2 21 69 118 123 120 116 95 88 94 98 100 102 103
144 134 134 135 140 137 136 142 145 147 144 145 145 152 153 154 152 160 168 146 142 139 139 142 142 138 138 141 137 141 144 135 133 131 129 131 131 129 129 129 128 125 127 127 127 126 126 117 119 118 112 106 95 79 48 32 30 25 24 26 16 7 12 33 54 55 82 83 80 113 173 315 350 159 124 131 125 103 96 91 97 101 109 110 110
144 144 140 142 150 148 147 147 154 156 153 150 158 154 152 153 156 163 164 145 145 144 144 149 147 144 147 146 144 146 147 142 136 140 140 141 135 132 133 128 129 133 136 137 138 131 130 125 124 120 115 110 100 81 51 26 19 18 22 21 11 6 13 28 50 18 37 88 88 42 269 43 358 313 134 132 116 114 116 115 113 112 111 109 108
144 147 148 151 154 153 150 149 156 152 158 165 160 152 149 151 153 162 161 153 152 148 151 152 152 153 154 154 152 152 151 150 148 151 144 140 133 138 143 145 142 144 144 141 138 139 139 134 125 124 115 102 95 77 53 22 12 12 14 15 10 7 11 17 27 10 45 78 74 63 37 349 293 173 138 132 127 123 125 127 124 119 116 115 112
147 150 152 155 154 157 151 153 150 153 161 167 173 154 162 156 159 164 163 164 165 164 164 162 158 166 163 159 158 156 155 157 161 163 152 151 151 153 152 152 150 149 145 143 143 143 139 135 133 125 112 106 104 98 55 16 358 5 3 8 10 11 11 18 33 49 87 87 84 74 80 129 138 151 151 144 139 135 132 127 123 121 122 120 119
149 153 157 155 158 160 155 154 156 161 162 168 183 158 170 172 164 169 173 172 174 174 165 158 165 170 168 166 159 161 162 162 166 159 154 161 160 157 157 153 152 154 150 147 147 148 144 134 130 119 119 125 132 134 164 323 330 338 354 7 9 10 10 7 34 72 81 69 66 60 50 299 260 170 165 154 152 134 129 126 125 127 127 127 124
153 159 159 160 161 159 160 159 163 163 159 163 171 168 176 196 183 163 169 168 171 172 164 163 170 168 172 169 163 166 168 165 160 162 165 163 158 158 161 162 163 160 151 152 150 142 138 143 142 135 126 142 152 174 201 257 294 323 354 1 2 358 14 6 25 59 85 73 36 38 5 340 193 165 166 164 156 130 129 130 130 131 132 132 130
153 159 160 165 161 163 161 166 166 163 162 165 172 175 183 198 182 171 172 174 176 172 172 176 177 171 179 175 170 170 168 164 160 166 165 154 161 168 169 167 162 157 159 159 154 149 148 145 140 133 149 157 182 200 217 250 280 317 344 347 346 356 10 33 52 84 88 80 34 10 338 318 192 163 169 168 158 143 142 140 141 138 139 136 133
155 157 161 166 166 165 167 169 172 168 165 167 175 177 175 163 165 180 170 178 186 171 168 172 178 180 177 179 174 172 168 168 168 169 165 164 168 169 168 166 163 169 172 173 168 164 159 159 147 145 169 181 190 213 229 250 271 296 314 319 341 360 4 29 91 114 106 100 85 339 324 303 243 165 169 176 153 140 139 147 149 148 145 143 140
158 160 165 168 169 171 172 172 173 172 173 171 175 174 167 165 164 175 171 177 175 164 163 168 166 168 169 177 172 173 170 174 174 168 169 172 166 165 170 170 173 176 181 177 179 179 169 168 163 168 182 194 205 217 236 249 259 279 291 307 333 10 353 43 113 156 133 128 136 321 315 293 223 172 171 169 157 145 147 157 165 159 153 149 145
165 171 169 166 175 172 177 174 177 180 178 176 179 181 174 169 168 173 170 166 165 165 162 163 161 162 166 172 171 166 170 184 169 165 169 170 168 175 176 180 182 183 178 179 190 179 165 170 176 187 198 206 215 222 235 246 259 270 290 294 303 32 352 29 90 80 62 139 151 84 296 288 228 180 174 173 164 160 162 174 180 182 162 156 153
174 176 175 180 174 176 178 181 183 184 183 183 187 185 184 174 174 175 166 168 169 166 163 162 158 162 167 172 172 168 170 176 165 165 169 171 177 175 189 192 182 179 177 182 193 178 176 180 187 197 207 212 225 231 235 248 257 266 271 281 293 45 17 31 134 139 139 146 339 334 306 294 206 203 181 192 175 174 180 180 182 188 183 163 163
186 190 180 185 183 182 184 184 191 189 187 187 189 189 192 181 180 179 173 172 171 171 168 164 159 164 167 174 172 168 174 176 173 170 171 174 178 181 191 196 178 175 180 186 187 185 193 193 198 204 211 217 228 243 242 249 259 263 269 279 312 19 44 94 199 168 141 234 18 313 313 323 220 205 195 194 185 178 174 178 184 196 194 179 173
190 198 206 188 189 195 188 191 193 195 191 190 193 193 192 190 185 185 181 175 173 170 167 163 165 165 171 170 173 177 174 177 176 167 167 176 179 183 185 187 166 168 186 191 192 191 200 208 209 213 217 220 231 246 272 275 279 276 272 283 319 307 121 244 189 224 165 179 215 276 316 303 244 207 198 200 188 184 191 187 189 205 201 193 186
208 203 208 198 196 197 198 199 200 198 196 196 196 199 196 192 191 188 186 179 172 168 167 171 173 176 175 175 178 183 180 177 176 174 175 181 185 184 177 177 170 167 180 200 205 200 206 210 219 223 226 232 236 250 268 277 289 306 312 303 287 289 274 195 183 230 188 199 194 227 284 278 255 234 206 197 198 199 184 180 184 202 204 202 198
213 203 198 195 192 198 198 199 201 201 197 204 204 198 195 196 193 192 184 184 177 181 176 177 181 185 183 185 182 184 184 180 186 181 174 171 186 182 174 173 170 162 175 196 209 208 212 213 215 230 250 280 261 248 267 274 271 282 294 287 286 273 280 195 191 204 208 212 216 217 232 275 268 261 224 208 202 205 205 215 218 214 211 209 206
207 204 210 208 192 194 195 200 200 199 196 200 202 200 197 195 197 193 187 187 188 192 186 189 187 189 191 190 192 185 183 183 178 172 174 174 175 178 168 174 189 169 169 189 193 210 243 253 249 260 263 257 257 244 246 262 263 258 263 269 271 275 268 253 187 193 207 206 224 219 213 263 263 275 225 213 211 200 199 212 206 207 211 214 213
200 207 215 215 210 190 190 196 196 200 198 196 199 197 189 198 197 196 190 194 193 191 188 196 195 193 191 193 198 190 189 186 177 174 176 183 182 190 177 179 190 184 182 192 198 201 204 210 221 236 243 228 237 243 235 236 254 258 248 260 260 261 254 241 220 193 210 211 230 226 223 245 262 287 238 211 213 210 206 201 208 209 217 218 217
205 217 211 215 216 205 193 191 198 196 201 197 197 192 196 200 198 195 192 200 194 197 205 203 201 193 194 196 191 190 192 193 178 173 190 190 194 193 188 181 190 191 189 188 201 195 201 213 221 230 234 215 232 238 242 241 238 246 250 245 247 249 246 242 211 209 214 217 228 240 239 236 263 264 295 261 216 219 220 224 231 235 225 220 218
213 220 214 212 209 211 199 189 197 194 197 194 193 195 197 196 200 198 203 199 196 205 207 207 201 202 199 200 195 186 185 195 188 181 186 192 199 196 198 193 190 193 189 195 197 205 201 211 220 232 239 222 224 230 235 241 243 239 246 245 239 235 233 235 213 210 209 220 227 234 233 241 246 260 257 281 243 230 228 225 229 231 227 222 223
222 221 217 215 216 210 203 202 198 197 193 187 195 194 194 197 196 198 203 197 203 204 204 202 207 206 203 202 196 192 191 193 196 194 192 196 199 202 200 203 202 199 190 205 202 201 206 206 215 227 232 234 220 228 227 240 241 239 230 237 229 223 224 225 219 210 211 212 221 232 230 231 233 239 245 253 257 239 231 229 230 231 233 233 220
220 217 213 219 217 208 207 208 204 201 197 187 196 192 194 196 200 201 201 197 205 201 199 203 207 202 206 206 203 196 192 192 195 197 195 199 199 199 205 206 207 203 198 207 208 205 205 206 215 220 225 232 231 230 219 232 236 230 221 226 224 217 215 214 215 209 211 209 213 226 229 224 230 233 235 241 246 250 245 242 240 225 235 232 224
216 219 216 218 212 206 213 210 207 203 197 201 197 198 194 202 201 200 198 203 200 199 202 205 205 207 205 203 203 199 193 192 192 195 202 198 200 203 208 205 211 207 202 210 203 210 207 208 209 213 220 223 231 234 224 233 239 229 218 217 220 216 220 220 216 212 207 210 209 216 226 226 223 230 232 231 239 245 250 257 245 230 226 230 228
212 221 217 211 204 209 211 209 207 202 200 207 203 202 201 206 204 199 204 204 197 202 205 205 207 207 205 203 202 199 191 195 192 193 197 198 202 205 208 208 214 209 204 207 205 210 208 214 214 215 218 216 229 235 228 225 236 237 226 220 219 215 220 218 218 216 212 206 208 212 215 219 226 228 233 234 235 239 246 253 253 232 236 233 230
223 223 220 203 209 208 208 210 203 202 203 207 206 209 207 205 204 206 205 199 201 204 209 208 208 206 205 204 204 202 196 194 196 196 196 202 203 205 210 213 212 206 203 206 209 209 209 215 226 222 225 224 229 237 234 224 232 236 228 230 220 225 222 218 223 221 220 213 207 210 213 216 217 230 235 239 240 238 234 238 252 243 236 233 234
225 224 207 216 212 207 207 204 202 205 208 209 208 209 212 211 207 209 205 200 204 205 212 210 207 205 203 205 205 205 202 202 198 203 199 201 206 209 211 214 210 204 201 200 208 205 212 213 223 217 228 224 227 233 231 235 235 238 234 230 220 225 219 222 222 221 219 217 211 210 215 214 216 218 227 235 239 242 239 231 235 243 244 243 238
224 216 210 217 203 207 197 206 202 208 207 212 210 212 212 213 211 211 207 204 206 210 213 211 209 207 201 208 206 205 205 205 205 203 206 205 209 214 216 218 202 201 203 205 203 210 212 220 215 223 232 233 232 234 228 233 234 236 237 224 224 226 226 224 223 224 220 221 211 217 216 213 212 216 220 225 237 239 239 238 232 234 240 245 244
216 217 218 206 209 209 197 206 200 208 210 212 213 214 214 214 214 212 211 206 209 213 214 209 208 205 205 208 207 206 204 206 206 204 207 208 211 216 219 207 203 203 210 209 206 214 219 228 225 217 229 237 231 237 230 234 233 239 237 228 227 222 224 225 226 225 223 219 221 220 216 215 212 214 215 220 225 233 236 235 237 235 235 242 246
215 215 211 203 212 208 203 207 206 207 213 214 215 219 218 217 216 212 210 206 214 218 216 209 204 205 205 209 205 205 205 207 207 206 210 207 211 218 215 203 196 203 209 210 210 212 214 225 232 224 224 236 229 236 235 231 236 239 239 234 228 223 225 223 224 226 222 222 227 224 220 218 217 216 215 217 219 227 235 234 233 235 235 237 241
219 216 212 204 209 204 204 208 213 211 211 211 212 217 220 220 220 216 209 213 217 219 218 207 212 211 206 212 200 201 207 206 207 208 213 212 207 211 211 202 197 204 211 212 218 209 214 216 232 228 222 232 234 230 233 231 233 241 241 237 239 232 232 230 229 231 225 228 228 226 220 216 212 217 217 215 214 218 223 233 233 233 233 233 236
221 218 216 214 213 209 207 211 213 213 212 211 214 217 219 222 220 216 219 223 221 218 214 215 217 212 217 213 202 202 205 206 206 207 214 215 213 210 211 206 200 204 209 216 221 216 217 219 226 233 225 229 235 236 236 230 236 243 246 243 241 243 241 233 233 233 230 231 228 226 221 223 215 217 217 214 216 213 217 222 226 227 232 234 234
221 218 219 215 215 215 209 214 215 213 208 212 205 212 209 214 217 217 233 229 223 219 217 221 214 218 221 212 207 209 207 205 207 208 214 217 217 213 213 203 206 205 213 218 220 214 216 218 227 228 235 241 240 246 236 228 247 251 254 260 250 253 252 243 240 237 234 232 231 221 225 223 219 223 218 216 214 214 214 217 219 221 222 228 231
233 226 221 218 215 213 204 215 214 204 200 201 202 200 205 215 221 217 224 221 220 220 220 221 221 224 221 213 209 212 213 211 213 209 216 219 223 221 214 210 204 210 218 224 219 219 216 214 221 217 226 235 242 226 233 191 234 266 252 260 271 259 255 249 248 245 238 235 224 222 224 220 222 223 221 215 215 213 213 215 217 217 218 220 229
238 221 222 220 215 214 212 221 212 204 207 205 203 203 207 205 201 212 217 220 218 215 224 220 222 226 221 213 213 213 213 216 216 215 217 216 222 225 223 221 211 218 224 229 225 221 214 213 211 229 217 224 237 205 201 144 234 231 249 285 279 264 246 244 246 246 240 236 224 222 221 221 223 223 223 216 221 219 216 216 214 216 218 217 222
231 217 223 222 219 215 220 221 215 208 211 208 203 210 210 212 205 215 209 225 225 225 230 229 228 230 223 217 214 212 213 218 216 215 220 220 223 223 225 219 218 218 224 229 227 225 216 215 209 217 223 228 239 207 192 187 232 209 180 347 273 293 277 248 244 241 234 233 222 225 224 225 226 223 218 217 223 224 220 216 216 217 219 218 217
237 238 230 223 224 223 222 219 219 214 215 209 209 215 212 214 219 226 224 217 219 226 232 234 230 224 228 214 216 215 213 218 216 217 219 223 220 224 226 223 222 214 222 230 228 231 221 220 216 218 213 230 223 231 197 200 209 129 221 216 234 180 306 249 231 244 218 231 219 227 222 227 228 226 216 219 224 222 222 214 218 219 220 219 216
230 229 223 219 218 220 219 215 216 213 214 209 208 210 202 202 211 223 216 274 271 211 210 233 225 228 231 219 222 212 216 218 217 218 219 223 222 224 225 227 227 223 221 229 231 229 226 224 218 217 211 221 229 224 217 205 212 205 191 121 205 228 235 265 80 268 200 224 228 225 225 227 227 223 216 225 224 223 220 218 221 220 223 221 219
235 232 216 220 223 231 229 227 225 222 216 209 200 189 200 202 191 203 222 224 235 215 218 220 216 220 224 227 229 217 219 222 220 220 221 222 224 223 224 226 229 228 224 230 236 233 229 224 218 218 223 222 230 224 231 211 216 214 221 225 171 188 198 257 126 272 319 239 237 227 226 224 225 226 221 223 222 225 217 224 219 223 222 222 220
240 243 250 233 228 234 233 225 225 228 217 198 182 185 201 207 208 212 217 219 228 234 224 224 224 227 225 227 226 222 222 223 226 223 223 222 224 224 223 226 229 231 229 230 233 233 233 228 222 220 226 222 218 234 230 218 206 234 227 232 244 233 152 126 238 340 303 316 256 234 235 226 225 229 226 222 226 226 225 222 223 221 223 220 219
282 270 244 245 228 230 223 223 227 228 219 194 185 189 200 207 214 221 224 229 228 240 216 224 222 222 221 228 225 226 222 224 227 226 226 225 222 224 223 225 228 229 227 230 233 234 235 233 224 225 226 221 217 224 234 215 205 229 218 231 238 247 240 247 208 214 239 284 291 298 260 239 230 237 229 225 226 224 227 223 225 223 223 220 217
289 278 260 260 269 281 256 236 238 231 226 201 197 201 206 208 211 218 228 233 238 244 235 217 218 212 227 228 224 226 223 223 225 226 226 226 223 224 222 224 227 229 223 232 234 232 230 231 227 223 223 224 220 226 230 230 217 231 206 228 234 239 243 244 248 219 244 261 269 255 261 256 253 247 234 227 228 227 226 228 222 222 223 221 216
286 273 278 282 303 302 270 249 250 226 221 210 210 215 214 214 217 221 228 238 230 242 227 228 223 212 227 232 227 228 225 225 226 226 228 225 225 223 224 226 227 230 228 232 234 233 232 230 229 227 225 227 224 223 225 232 229 231 222 223 217 234 244 249 240 237 241 228 250 255 249 233 240 239 225 227 224 228 230 229 225 220 223 221 219
319 5 16 14 8 46 39 303 271 278 218 207 197 215 215 213 223 227 230 238 237 232 234 238 230 221 229 234 228 228 224 228 225 227 226 225 225 224 225 227 229 230 230 232 233 233 233 232 231 229 228 226 226 226 228 234 233 231 226 222 225 218 220 223 230 224 223 232 241 251 257 240 240 269 236 215 219 229 228 229 224 220 221 221 220